JST518 YMML-YSSY

Flight info

Callsign JST518
Flight time 1h 6m
Altitude 39000
Route ML H129 DOSEL Y59 RIVET
Aircraft A20N/M-SDE2E3FGHIRWXY/LB1

Departure

Time 2026-04-30 07:17
Airport Melbourne Airport (YMML)

Arrival

Time 2026-04-30 08:23
Airport Sydney Kingsford Smith International Airport (YSSY)
Time Latitude Longitude Altitude Speed Heading
2026-04-30 06:51 -37.67340 144.84792 363 ft 0 kts 24°
2026-04-30 07:06 -37.67354 144.84784 365 ft 3 kts 24°
2026-04-30 07:07 -37.67371 144.84775 360 ft 3 kts 24°
2026-04-30 07:07 -37.67388 144.84765 361 ft 3 kts 24°
2026-04-30 07:07 -37.67405 144.84756 365 ft 3 kts 24°
2026-04-30 07:07 -37.67422 144.84753 362 ft 3 kts 323°
2026-04-30 07:08 -37.67430 144.84772 364 ft 3 kts 264°
2026-04-30 07:08 -37.67429 144.84779 360 ft 0 kts 252°
2026-04-30 07:11 -37.67430 144.84778 362 ft 1 kts 254°
2026-04-30 07:12 -37.67431 144.84762 355 ft 1 kts 261°
2026-04-30 07:12 -37.67436 144.84726 359 ft 10 kts 262°
2026-04-30 07:12 -37.67449 144.84614 358 ft 13 kts 259°
2026-04-30 07:12 -37.67501 144.84548 362 ft 11 kts 191°
2026-04-30 07:13 -37.67580 144.84557 365 ft 12 kts 170°
2026-04-30 07:13 -37.67668 144.84574 359 ft 13 kts 172°
2026-04-30 07:13 -37.67758 144.84589 358 ft 12 kts 175°
2026-04-30 07:13 -37.67818 144.84543 354 ft 11 kts 249°
2026-04-30 07:14 -37.67831 144.84467 357 ft 0 kts 261°
2026-04-30 07:14 -37.67842 144.84371 361 ft 13 kts 262°
2026-04-30 07:14 -37.67856 144.84247 361 ft 18 kts 263°
2026-04-30 07:14 -37.67875 144.84085 354 ft 19 kts 262°
2026-04-30 07:15 -37.67875 144.83973 355 ft 6 kts 320°
2026-04-30 07:15 -37.67851 144.83963 356 ft 0 kts 349°
2026-04-30 07:16 -37.67829 144.83958 359 ft 16 kts 349°
2026-04-30 07:17 -37.67491 144.83896 368 ft 81 kts 352°
2026-04-30 07:17 -37.66740 144.83758 392 ft 136 kts 352°
2026-04-30 07:17 -37.64715 144.83400 1289 ft 144 kts 355°
2026-04-30 07:18 -37.63729 144.83262 1940 ft 141 kts 356°
2026-04-30 07:18 -37.62746 144.83132 2711 ft 144 kts 351°
2026-04-30 07:18 -37.61686 144.82894 3201 ft 168 kts 350°
2026-04-30 07:18 -37.60453 144.82613 3604 ft 190 kts 351°
2026-04-30 07:19 -37.59038 144.82564 3929 ft 221 kts
2026-04-30 07:19 -37.57504 144.83201 4505 ft 241 kts 20°
2026-04-30 07:19 -37.55953 144.84126 5299 ft 251 kts 22°
2026-04-30 07:19 -37.54372 144.85112 6176 ft 256 kts 23°
2026-04-30 07:20 -37.52772 144.86108 7136 ft 258 kts 22°
2026-04-30 07:20 -37.51138 144.87112 8014 ft 264 kts 22°
2026-04-30 07:20 -37.49465 144.88133 8906 ft 270 kts 22°
2026-04-30 07:20 -37.47757 144.89172 9827 ft 275 kts 22°
2026-04-30 07:21 -37.46010 144.90234 10589 ft 285 kts 22°
2026-04-30 07:21 -37.44229 144.91545 10985 ft 311 kts 33°
2026-04-30 07:21 -37.42612 144.93510 11434 ft 334 kts 47°
2026-04-30 07:21 -37.41198 144.95892 12173 ft 344 kts 51°
2026-04-30 07:22 -37.38426 145.00871 13808 ft 354 kts 52°
2026-04-30 07:22 -37.36996 145.03430 14552 ft 360 kts 51°
2026-04-30 07:22 -37.35544 145.06014 15294 ft 364 kts 51°
2026-04-30 07:23 -37.34072 145.08624 16062 ft 367 kts 51°
2026-04-30 07:23 -37.32584 145.11256 16827 ft 371 kts 51°
2026-04-30 07:23 -37.31082 145.13908 17578 ft 375 kts 50°
2026-04-30 07:23 -37.29563 145.16587 18315 ft 379 kts 50°
2026-04-30 07:24 -37.28025 145.19297 18979 ft 383 kts 50°
2026-04-30 07:24 -37.26471 145.22029 19570 ft 387 kts 50°
2026-04-30 07:24 -37.24916 145.24763 20177 ft 391 kts 50°
2026-04-30 07:24 -37.23331 145.27549 20773 ft 394 kts 50°
2026-04-30 07:25 -37.21731 145.30359 21420 ft 397 kts 50°
2026-04-30 07:25 -37.20121 145.33184 21987 ft 400 kts 50°
2026-04-30 07:25 -37.18492 145.36038 22577 ft 404 kts 50°
2026-04-30 07:25 -37.16847 145.38919 23139 ft 408 kts 49°
2026-04-30 07:26 -37.15189 145.41816 23696 ft 411 kts 49°
2026-04-30 07:26 -37.13509 145.44746 24184 ft 414 kts 49°
2026-04-30 07:26 -37.11822 145.47687 24672 ft 417 kts 49°
2026-04-30 07:26 -37.10119 145.50652 25116 ft 421 kts 50°
2026-04-30 07:27 -37.08403 145.53637 25567 ft 423 kts 50°
2026-04-30 07:27 -37.06678 145.56637 26027 ft 426 kts 50°
2026-04-30 07:27 -37.04939 145.59660 26442 ft 429 kts 50°
2026-04-30 07:27 -37.03186 145.62704 26852 ft 432 kts 50°
2026-04-30 07:28 -37.01424 145.65761 27242 ft 435 kts 50°
2026-04-30 07:28 -36.99647 145.68841 27649 ft 438 kts 50°
2026-04-30 07:28 -36.97860 145.71937 28030 ft 440 kts 50°
2026-04-30 07:28 -36.96057 145.75056 28399 ft 443 kts 50°
2026-04-30 07:29 -36.94248 145.78185 28756 ft 446 kts 50°
2026-04-30 07:29 -36.92423 145.81335 29169 ft 447 kts 50°
2026-04-30 07:29 -36.91213 145.83423 29427 ft 449 kts 50°
2026-04-30 07:29 -36.89376 145.86592 29794 ft 451 kts 50°
2026-04-30 07:30 -36.85664 145.92983 30492 ft 456 kts 50°
2026-04-30 07:30 -36.83797 145.96195 30871 ft 456 kts 50°
2026-04-30 07:30 -36.81933 145.99401 31299 ft 455 kts 50°
2026-04-30 07:31 -36.80073 146.02594 31705 ft 454 kts 50°
2026-04-30 07:31 -36.78236 146.05746 32094 ft 454 kts 50°
2026-04-30 07:31 -36.76376 146.08933 32460 ft 454 kts 50°
2026-04-30 07:31 -36.74518 146.12111 32813 ft 454 kts 50°
2026-04-30 07:32 -36.72660 146.15288 33164 ft 454 kts 50°
2026-04-30 07:32 -36.70799 146.18465 33512 ft 453 kts 50°
2026-04-30 07:32 -36.68938 146.21639 33849 ft 453 kts 50°
2026-04-30 07:32 -36.67072 146.24820 34177 ft 453 kts 50°
2026-04-30 07:33 -36.65212 146.27989 34477 ft 453 kts 50°
2026-04-30 07:33 -36.63350 146.31158 34783 ft 453 kts 50°
2026-04-30 07:33 -36.61513 146.34282 35041 ft 452 kts 50°
2026-04-30 07:33 -36.59654 146.37441 35344 ft 451 kts 50°
2026-04-30 07:34 -36.57798 146.40591 35617 ft 451 kts 50°
2026-04-30 07:34 -36.55942 146.43738 35866 ft 450 kts 50°
2026-04-30 07:34 -36.54090 146.46875 36124 ft 450 kts 50°
2026-04-30 07:34 -36.52235 146.50014 36365 ft 450 kts 50°
2026-04-30 07:35 -36.50380 146.53150 36578 ft 450 kts 50°
2026-04-30 07:35 -36.48523 146.56286 36818 ft 450 kts 50°
2026-04-30 07:35 -36.46666 146.59421 37053 ft 449 kts 50°
2026-04-30 07:35 -36.44809 146.62551 37280 ft 449 kts 50°
2026-04-30 07:36 -36.42979 146.65635 37501 ft 449 kts 47°
2026-04-30 07:36 -36.41102 146.68728 37686 ft 448 kts 47°
2026-04-30 07:36 -36.39202 146.71801 37868 ft 448 kts 47°
2026-04-30 07:36 -36.37305 146.74872 38064 ft 448 kts 47°
2026-04-30 07:37 -36.35420 146.77953 38243 ft 448 kts 47°
2026-04-30 07:37 -36.33546 146.81048 38424 ft 448 kts 47°
2026-04-30 07:37 -36.31687 146.84154 38596 ft 448 kts 49°
2026-04-30 07:38 -36.27979 146.90409 38753 ft 452 kts 48°
2026-04-30 07:38 -36.26109 146.93541 38909 ft 452 kts 48°
2026-04-30 07:38 -36.24240 146.96668 39067 ft 451 kts 49°
2026-04-30 07:38 -36.22374 146.99797 39193 ft 451 kts 48°
2026-04-30 07:39 -36.20506 147.02923 39300 ft 451 kts 48°
2026-04-30 07:39 -36.16748 147.09177 39343 ft 453 kts 48°
2026-04-30 07:40 -36.12974 147.15430 39344 ft 454 kts 48°
2026-04-30 07:40 -36.09184 147.21692 39350 ft 455 kts 48°
2026-04-30 07:41 -36.05417 147.27916 39353 ft 455 kts 48°
2026-04-30 07:41 -36.01625 147.34188 39354 ft 455 kts 49°
2026-04-30 07:42 -35.97844 147.40461 39353 ft 455 kts 49°
2026-04-30 07:42 -35.94051 147.46737 39358 ft 457 kts 49°
2026-04-30 07:43 -35.90230 147.53021 39365 ft 457 kts 49°
2026-04-30 07:43 -35.86404 147.59293 39365 ft 458 kts 50°
2026-04-30 07:44 -35.82624 147.65616 39363 ft 457 kts 50°
2026-04-30 07:44 -35.78803 147.71891 39368 ft 458 kts 50°
2026-04-30 07:45 -35.74968 147.78170 39366 ft 459 kts 50°
2026-04-30 07:45 -35.71160 147.84414 39370 ft 459 kts 51°
2026-04-30 07:46 -35.67304 147.90710 39372 ft 463 kts 51°
2026-04-30 07:46 -35.63405 147.97055 39379 ft 465 kts 51°
2026-04-30 07:47 -35.59495 148.03394 39378 ft 465 kts 51°
2026-04-30 07:47 -35.55582 148.09719 39384 ft 465 kts 51°
2026-04-30 07:48 -35.51666 148.16034 39390 ft 465 kts 51°
2026-04-30 07:48 -35.47744 148.22348 39388 ft 465 kts 51°
2026-04-30 07:49 -35.43844 148.28617 39394 ft 465 kts 51°
2026-04-30 07:49 -35.39913 148.34923 39393 ft 465 kts 51°
2026-04-30 07:50 -35.35983 148.41215 39401 ft 465 kts 51°
2026-04-30 07:50 -35.32043 148.47512 39392 ft 466 kts 51°
2026-04-30 07:51 -35.28097 148.53805 39411 ft 466 kts 51°
2026-04-30 07:51 -35.24145 148.60100 39396 ft 466 kts 51°
2026-04-30 07:52 -35.20193 148.66382 39224 ft 466 kts 51°
2026-04-30 07:52 -35.18217 148.69519 38993 ft 466 kts 51°
2026-04-30 07:52 -35.16237 148.72659 38723 ft 466 kts 51°
2026-04-30 07:52 -35.14287 148.75750 38445 ft 465 kts 51°
2026-04-30 07:53 -35.12308 148.78883 38167 ft 465 kts 51°
2026-04-30 07:53 -35.10333 148.82007 37902 ft 465 kts 51°
2026-04-30 07:53 -35.08360 148.85125 37634 ft 464 kts 51°
2026-04-30 07:53 -35.06385 148.88244 37368 ft 464 kts 51°
2026-04-30 07:54 -35.04415 148.91353 37106 ft 463 kts 51°
2026-04-30 07:54 -35.02434 148.94474 36851 ft 463 kts 51°
2026-04-30 07:54 -35.00463 148.97578 36592 ft 463 kts 52°
2026-04-30 07:54 -34.98494 149.00676 36344 ft 462 kts 52°
2026-04-30 07:55 -34.96523 149.03776 36107 ft 462 kts 52°
2026-04-30 07:55 -34.94557 149.06863 35858 ft 461 kts 52°
2026-04-30 07:55 -34.92592 149.09948 35611 ft 458 kts 52°
2026-04-30 07:55 -34.90649 149.12993 35360 ft 450 kts 52°
2026-04-30 07:56 -34.88743 149.15979 35112 ft 443 kts 52°
2026-04-30 07:56 -34.86859 149.18928 34871 ft 440 kts 52°
2026-04-30 07:56 -34.85003 149.21831 34635 ft 440 kts 52°
2026-04-30 07:56 -34.83119 149.24776 34411 ft 441 kts 53°
2026-04-30 07:57 -34.81238 149.27713 34157 ft 441 kts 52°
2026-04-30 07:57 -34.79354 149.30653 33887 ft 441 kts 53°
2026-04-30 07:57 -34.77467 149.33596 33624 ft 441 kts 52°
2026-04-30 07:57 -34.75574 149.36545 33360 ft 443 kts 53°
2026-04-30 07:58 -34.73827 149.39677 33111 ft 450 kts 60°
2026-04-30 07:58 -34.72260 149.42998 32858 ft 454 kts 62°
2026-04-30 07:58 -34.70742 149.46371 32603 ft 455 kts 62°
2026-04-30 07:58 -34.69255 149.49765 32358 ft 456 kts 63°
2026-04-30 07:59 -34.67777 149.53178 32106 ft 456 kts 63°
2026-04-30 07:59 -34.66303 149.56590 31861 ft 457 kts 63°
2026-04-30 07:59 -34.64821 149.60012 31615 ft 457 kts 63°
2026-04-30 08:00 -34.61844 149.66842 31143 ft 458 kts 63°
2026-04-30 08:00 -34.60349 149.70255 30904 ft 459 kts 63°
2026-04-30 08:00 -34.58847 149.73677 30488 ft 459 kts 63°
2026-04-30 08:00 -34.57343 149.77099 29803 ft 460 kts 63°
2026-04-30 08:01 -34.55854 149.80483 29169 ft 461 kts 62°
2026-04-30 08:01 -34.54321 149.83962 28525 ft 462 kts 62°
2026-04-30 08:01 -34.52802 149.87410 27874 ft 463 kts 62°
2026-04-30 08:01 -34.51279 149.90861 27220 ft 464 kts 62°
2026-04-30 08:02 -34.48242 149.97734 25942 ft 466 kts 62°
2026-04-30 08:02 -34.46690 150.01239 25354 ft 466 kts 62°
2026-04-30 08:03 -34.43669 150.08053 24263 ft 457 kts 62°
2026-04-30 08:03 -34.40668 150.14809 22508 ft 457 kts 62°
2026-04-30 08:03 -34.39156 150.18208 21497 ft 455 kts 62°
2026-04-30 08:04 -34.37664 150.21560 20516 ft 447 kts 62°
2026-04-30 08:04 -34.36203 150.24838 19628 ft 438 kts 62°
2026-04-30 08:04 -34.34778 150.28033 18926 ft 425 kts 62°
2026-04-30 08:04 -34.33391 150.31140 18163 ft 413 kts 62°
2026-04-30 08:05 -34.32044 150.34156 17396 ft 402 kts 61°
2026-04-30 08:05 -34.30731 150.37092 16643 ft 392 kts 61°
2026-04-30 08:05 -34.29466 150.39917 16022 ft 380 kts 60°
2026-04-30 08:05 -34.28224 150.42695 15417 ft 370 kts 61°
2026-04-30 08:06 -34.27017 150.45395 14827 ft 360 kts 60°
2026-04-30 08:06 -34.25841 150.48025 14251 ft 351 kts 60°
2026-04-30 08:06 -34.24692 150.50594 13593 ft 344 kts 61°
2026-04-30 08:06 -34.23560 150.53126 12951 ft 339 kts 60°
2026-04-30 08:07 -34.22442 150.55620 12314 ft 335 kts 61°
2026-04-30 08:07 -34.21336 150.58085 11709 ft 332 kts 61°
2026-04-30 08:07 -34.20245 150.60515 11146 ft 327 kts 62°
2026-04-30 08:07 -34.19164 150.62924 10607 ft 323 kts 62°
2026-04-30 08:08 -34.18105 150.65280 10036 ft 315 kts 62°
2026-04-30 08:08 -34.17073 150.67576 9442 ft 307 kts 62°
2026-04-30 08:08 -34.16074 150.69798 9022 ft 295 kts 62°
2026-04-30 08:08 -34.15119 150.71920 8723 ft 281 kts 62°
2026-04-30 08:09 -34.14197 150.73967 8438 ft 275 kts 62°
2026-04-30 08:09 -34.13296 150.75966 8161 ft 273 kts 62°
2026-04-30 08:09 -34.12401 150.77953 7883 ft 265 kts 62°
2026-04-30 08:09 -34.11525 150.79895 7615 ft 262 kts 61°
2026-04-30 08:10 -34.10659 150.81816 7339 ft 260 kts 62°
2026-04-30 08:10 -34.09794 150.83736 7079 ft 260 kts 61°
2026-04-30 08:10 -34.08930 150.85656 6847 ft 260 kts 61°
2026-04-30 08:10 -34.08070 150.87567 6597 ft 259 kts 61°
2026-04-30 08:11 -34.07215 150.89466 6343 ft 256 kts 61°
2026-04-30 08:11 -34.06367 150.91349 6094 ft 255 kts 61°
2026-04-30 08:11 -34.05533 150.93200 6016 ft 253 kts 61°
2026-04-30 08:11 -34.04690 150.95068 6018 ft 254 kts 61°
2026-04-30 08:12 -34.03856 150.96948 6011 ft 252 kts 64°
2026-04-30 08:12 -34.03314 150.98938 5873 ft 250 kts 82°
2026-04-30 08:12 -34.03412 151.01009 5625 ft 249 kts 104°
2026-04-30 08:12 -34.04178 151.02854 5374 ft 247 kts 126°
2026-04-30 08:13 -34.05301 151.04409 5122 ft 246 kts 130°
2026-04-30 08:13 -34.06486 151.05888 4919 ft 244 kts 131°
2026-04-30 08:13 -34.07759 151.07241 4782 ft 246 kts 144°
2026-04-30 08:13 -34.09326 151.08082 4649 ft 249 kts 161°
2026-04-30 08:14 -34.11020 151.08576 4492 ft 251 kts 165°
2026-04-30 08:14 -34.12711 151.08997 4309 ft 245 kts 166°
2026-04-30 08:14 -34.14373 151.09408 3989 ft 244 kts 166°
2026-04-30 08:14 -34.16037 151.09827 3663 ft 244 kts 165°
2026-04-30 08:15 -34.17689 151.10247 3367 ft 241 kts 166°
2026-04-30 08:15 -34.19318 151.10681 3102 ft 238 kts 162°
2026-04-30 08:15 -34.20855 151.11356 2967 ft 235 kts 158°
2026-04-30 08:15 -34.22405 151.11997 2982 ft 235 kts 152°
2026-04-30 08:16 -34.23636 151.13207 3014 ft 227 kts 120°
2026-04-30 08:16 -34.24128 151.14956 3020 ft 219 kts 91°
2026-04-30 08:16 -34.24116 151.16799 3019 ft 220 kts 84°
2026-04-30 08:16 -34.24001 151.18653 3022 ft 221 kts 83°
2026-04-30 08:17 -34.23871 151.20505 3015 ft 222 kts 83°
2026-04-30 08:17 -34.23686 151.22353 3009 ft 220 kts 72°
2026-04-30 08:17 -34.22908 151.23858 3012 ft 215 kts 39°
2026-04-30 08:17 -34.21546 151.24531 3016 ft 217 kts
2026-04-30 08:18 -34.20025 151.24391 3021 ft 221 kts 352°
2026-04-30 08:18 -34.19023 151.24160 2990 ft 221 kts 352°
2026-04-30 08:18 -34.17019 151.23522 2992 ft 224 kts 344°
2026-04-30 08:18 -34.16039 151.23127 2991 ft 224 kts 344°
2026-04-30 08:19 -34.14055 151.22322 2985 ft 224 kts 348°
2026-04-30 08:19 -34.13037 151.22181 2994 ft 221 kts 359°
2026-04-30 08:19 -34.11546 151.22041 2951 ft 209 kts 354°
2026-04-30 08:19 -34.10143 151.21709 2790 ft 203 kts 351°
2026-04-30 08:20 -34.08799 151.21352 2563 ft 193 kts 351°
2026-04-30 08:20 -34.07507 151.21013 2248 ft 185 kts 351°
2026-04-30 08:20 -34.06292 151.20687 1965 ft 172 kts 349°
2026-04-30 08:20 -34.05183 151.20334 1765 ft 159 kts 350°
2026-04-30 08:21 -34.04148 151.20050 1764 ft 150 kts 352°
2026-04-30 08:21 -34.03132 151.19792 1579 ft 148 kts 352°
2026-04-30 08:21 -34.02119 151.19542 1282 ft 149 kts 349°
2026-04-30 08:21 -34.01117 151.19274 1012 ft 149 kts 352°
2026-04-30 08:22 -34.00119 151.18997 834 ft 146 kts 351°
2026-04-30 08:22 -33.99123 151.18762 736 ft 146 kts 352°
2026-04-30 08:22 -33.98139 151.18498 475 ft 142 kts 352°
2026-04-30 08:22 -33.97213 151.18252 250 ft 129 kts 350°
2026-04-30 08:23 -33.96378 151.18049 60 ft 118 kts 349°
2026-04-30 08:23 -33.95634 151.17858 27 ft 99 kts 349°
2026-04-30 08:23 -33.95048 151.17707 22 ft 75 kts 349°
2026-04-30 08:23 -33.94714 151.17644 26 ft 34 kts
2026-04-30 08:24 -33.94594 151.17659 27 ft 9 kts 13°
2026-04-30 08:24 -33.94582 151.17662 30 ft 0 kts 14°
2026-04-30 08:25 -33.94579 151.17663 26 ft 0 kts 14°
2026-04-30 08:25 -33.94553 151.17672 27 ft 6 kts 15°
2026-04-30 08:26 -33.94498 151.17691 27 ft 10 kts 18°
2026-04-30 08:26 -33.94427 151.17718 27 ft 12 kts 17°
2026-04-30 08:26 -33.94336 151.17736 26 ft 14 kts 349°
2026-04-30 08:26 -33.94240 151.17706 24 ft 14 kts 346°
2026-04-30 08:27 -33.94150 151.17679 25 ft 12 kts 345°
2026-04-30 08:27 -33.94070 151.17655 26 ft 12 kts 346°
2026-04-30 08:27 -33.94025 151.17643 25 ft 0 kts 347°
2026-04-30 08:27 -33.94020 151.17641 25 ft 5 kts 347°
2026-04-30 08:28 -33.93988 151.17633 25 ft 4 kts 347°
2026-04-30 08:28 -33.93975 151.17629 23 ft 2 kts 347°
2026-04-30 08:28 -33.93928 151.17616 22 ft 5 kts 348°
2026-04-30 08:28 -33.93893 151.17625 22 ft 4 kts 27°
2026-04-30 08:29 -33.93882 151.17636 22 ft 3 kts 46°
2026-04-30 08:29 -33.93874 151.17653 22 ft 0 kts 63°
2026-04-30 08:29 -33.93872 151.17659 22 ft 0 kts 68°
2026-04-30 08:30 -33.93870 151.17664 22 ft 1 kts 65°
2026-04-30 08:30 -33.93816 151.17694 23 ft 10 kts 11°
2026-04-30 08:30 -33.93748 151.17691 24 ft 8 kts
2026-04-30 08:31 -33.93710 151.17679 28 ft 3 kts 330°
2026-04-30 08:31 -33.93690 151.17672 30 ft 1 kts
2026-04-30 08:31 -33.93674 151.17685 33 ft 0 kts 32°
2026-04-30 08:31 -33.93659 151.17704 33 ft 3 kts 73°
2026-04-30 08:32 -33.93659 151.17796 33 ft 12 kts 55°
2026-04-30 08:32 -33.93590 151.17825 34 ft 9 kts
2026-04-30 08:32 -33.93532 151.17817 33 ft 7 kts 304°
2026-04-30 08:32 -33.93528 151.17793 33 ft 3 kts 280°
2026-04-30 08:33 -33.93527 151.17780 33 ft 0 kts 278°
2026-04-30 08:33 -33.93526 151.17777 33 ft 1 kts 279°
2026-04-30 08:33 -33.93526 151.17775 33 ft 0 kts 279°
2026-04-30 08:33 -33.93526 151.17771 33 ft 1 kts 279°
2026-04-30 08:34 -33.93525 151.17770 33 ft 0 kts 279°